[[{"header":{"parameterUnit":"m.s-1","parameterCategory":1,"la1":30.2991,"la2":30.254,"lo1":-89.0895,"lo2":-89.0444,"dy":0.0017,"dx":0.0017,"nx":28,"ny":28,"refTime":"2024-03-15T03:00:00:Z","depth":0,"parameterNumber":2,"parameterNumberName":"U-component_of_WINDS"},"data":[0,0,0,0,0,0,0,0,0,0,0,0,0,0,0,0,0,0,0,0,0,0,0,0,0,0,0,0,0,0,0,0,0,0,0,0,0,0,0,0,0,0,0,0,0,0,0,0,0,0,0,0,0,0,0,0,0,0,1.5063,1.5064,0,1.5095,1.5096,1.5096,1.5032,1.503,1.5028,1.5026,1.5061,1.5063,1.5066,0,0,0,0,0,0,0,0,0,0,0,0,0,1.4949,1.4951,1.5063,1.5064,1.5064,1.5095,1.5096,1.5096,1.5033,1.503,1.5028,1.5025,1.506,1.5063,1.5067,0,0,0,0,0,0,0,0,0,0,0,0,0,1.4992,1.4952,1.5063,1.5036,1.5034,1.5095,1.5096,1.5096,1.5033,1.503,1.5027,1.5024,1.5059,1.5063,1.5067,1.5156,0,0,1.508,1.5082,0,0,0,0,0,0,0,0,1.4989,1.4996,1.504,1.5038,1.5036,1.5057,1.5068,1.5116,1.5034,1.5034,1.5026,1.5023,1.5062,1.5066,1.5079,1.5158,1.5159,1.508,1.5083,1.5085,1.5086,0,0,0,0,0,0,0,1.4986,1.4994,1.5076,1.5041,1.5038,1.5023,1.5026,1.5077,1.5065,1.5033,1.5029,1.5033,1.506,1.5075,1.5079,1.516,1.508,1.5084,1.5087,1.5089,1.5313,1.5316,0,0,0,0,0,0,1.4987,1.4992,1.5075,1.5077,1.5004,1.5028,1.503,1.5053,1.5064,1.5063,1.5036,1.503,1.5069,1.5074,1.508,1.5184,1.5085,1.5089,1.5091,1.5309,1.5314,1.5317,0,0,0,0,0,0,1.4984,1.4995,1.5074,1.5033,1.5042,1.5033,1.5059,1.5055,1.507,1.5066,1.5064,1.5053,1.5067,1.5074,1.5137,1.5185,1.5091,1.5095,1.5305,1.5311,1.5315,1.5394,0,0,0,0,0,0,1.4981,1.4994,1.5028,1.5035,1.5045,1.513,1.5062,1.5058,1.5077,1.507,1.5081,1.508,1.5065,1.5131,1.5142,1.5189,1.5098,1.5301,1.5308,1.5314,1.5387,1.5401,1.5413,0,0,0,0,0,1.4978,1.5049,1.503,1.504,1.5086,1.5133,1.5139,1.5119,1.5081,1.5115,1.5113,1.508,1.5178,1.5138,1.5149,1.5199,1.5298,1.5306,1.5313,1.5382,1.5399,1.5413,0,0,0,0,0,0,1.5049,1.505,1.5028,1.5104,1.5119,1.5122,1.5164,1.5138,1.5165,1.5157,1.5131,1.5135,1.5203,1.5207,1.5163,1.5285,1.5232,1.5242,1.528,1.5296,1.5309,1.5306,1.5102,0,0,0,0,0,1.5073,1.5111,1.511,1.5177,1.5186,1.5174,1.5194,1.5177,1.5192,1.5198,1.52,1.5216,1.525,1.5274,1.5305,1.5388,1.5389,1.5427,1.544,1.5451,1.546,1.5503,1.552,1.5342,1.5342,1.5342,0,0,1.5125,1.513,1.5155,1.5192,1.5201,1.5241,1.518,1.5225,1.5254,1.5205,1.5264,1.5267,1.5283,1.5356,1.5389,1.5362,1.5509,1.5461,1.5469,1.5472,1.5513,1.553,1.5545,1.5347,1.5346,1.5346,0,0,1.5238,1.5246,1.5302,1.5313,1.5328,1.532,1.5333,1.5341,1.534,1.54,1.5363,1.5398,1.5458,1.5471,1.5485,1.5603,1.5574,1.5614,1.5682,1.5724,1.5738,1.5751,1.5792,1.5807,1.5623,1.5623,1.5623,0,1.5299,1.5357,1.5335,1.5382,1.5399,1.5356,1.5412,1.5424,1.5449,1.5462,1.5432,1.5505,1.5513,1.5588,1.5617,1.563,1.5645,1.5612,1.5738,1.575,1.5761,1.5801,1.5816,1.5628,1.5627,1.5627,1.5626,0,1.5432,1.5473,1.5517,1.5541,1.5563,1.5615,1.56,1.5626,1.5607,1.5602,1.5663,1.5671,1.5703,1.572,1.5702,1.5793,1.5775,1.5742,1.5688,1.5783,1.582,1.5835,1.5635,1.5633,1.5632,1.563,0,0,1.5591,1.5602,1.5618,1.5628,1.5642,1.5673,1.5723,1.5754,1.5775,1.5794,1.5835,1.5887,1.5856,1.5872,1.5856,1.5894,1.5986,1.5856,1.5855,1.5879,1.6085,1.6109,1.6127,1.5967,1.5969,1.5972,1.6083,0,1.5702,1.5788,1.5768,1.5853,1.589,1.585,1.5893,1.5906,1.5903,1.5934,1.5931,1.5967,1.5924,1.5934,1.5969,1.5967,1.6027,1.5959,1.6004,1.6006,1.6001,1.6146,1.6172,1.6277,1.6097,1.61,1.6101,0,1.5844,1.5867,1.5955,1.5962,1.5977,1.6016,1.6042,1.6073,1.6087,1.6082,1.61,1.6077,1.6126,1.6072,1.614,1.6094,1.6112,1.6114,1.6117,1.612,1.6059,1.6152,1.631,1.6325,1.6124,1.6122,1.612,0,1.595,1.6003,1.6062,1.6072,1.6082,1.6111,1.6116,1.6127,1.6147,1.617,1.6182,1.6211,1.6227,1.625,1.6235,1.6197,1.6306,1.625,1.6303,1.6303,1.6327,1.6325,1.6489,1.634,1.634,1.6339,1.6339,0,1.6075,1.6131,1.611,1.6146,1.6207,1.6184,1.6245,1.6246,1.6256,1.6292,1.6259,1.6294,1.6272,1.6305,1.6294,1.6351,1.6359,1.6356,1.6352,1.6359,1.6359,1.6369,1.6361,1.6343,1.6342,1.6342,1.6341,0,1.6204,1.6192,1.6254,1.6258,1.626,1.6305,1.6308,1.6342,1.6336,1.6382,1.6392,1.6383,1.642,1.6407,1.6447,1.644,1.6513,1.65,1.6508,1.6504,1.6557,1.6552,1.6732,1.6754,1.6592,1.6594,1.6595,0,1.6284,1.6325,1.6334,1.6355,1.6363,1.6398,1.6418,1.6398,1.6419,1.6438,1.647,1.6504,1.653,1.6591,1.6588,1.6618,1.6606,1.6667,1.661,1.6615,1.6605,1.6603,1.6606,1.6678,1.668,1.6681,1.6682,0,1.6428,1.642,1.6449,1.6477,1.6501,1.6522,1.6539,1.6559,1.654,1.6566,1.6603,1.6623,1.6663,1.6697,1.6724,1.673,1.6703,1.67,1.6714,1.672,1.6723,1.6721,1.6538,1.6696,1.6695,1.6694,1.6693,1.6693,1.6534,1.6569,1.658,1.6614,1.6625,1.6642,1.6674,1.6672,1.6702,1.6733,1.6719,1.6762,1.6775,1.6809,1.6818,1.6851,1.6828,1.6848,1.6853,1.6858,1.6864,1.6718,1.6857,1.6856,1.6856,1.6855,1.6855,0,1.6676,1.6681,1.6712,1.6738,1.6764,1.6736,1.6754,1.6778,1.6816,1.683,1.6856,1.6899,1.6931,1.6932,1.6962,1.6988,1.6977,1.6997,1.6994,1.6996,1.6884,1.6869,1.7006,1.7006,1.7006,1.7006,1.7006,1.7006,1.6753,1.6809,1.6803,1.6865,1.687,1.6911,1.6923,1.6939,1.695,1.6999,1.7026,1.7025,1.7034,1.7065,1.7093,1.7092,1.7105,1.713,1.7124,1.7019,1.7004,1.699,1.6975,1.7133,1.7133,1.7234,1.7234,1.7235]},{"header":{"parameterUnit":"m.s-1","parameterCategory":1,"la1":30.2991,"la2":30.254,"lo1":-89.0895,"lo2":-89.0444,"dy":0.0017,"dx":0.0017,"nx":28,"ny":28,"refTime":"2024-03-15T03:00:00:Z","depth":0,"parameterNumber":3,"parameterNumberName":"V-component_of_WINDS"},"data":[0,0,0,0,0,0,0,0,0,0,0,0,0,0,0,0,0,0,0,0,0,0,0,0,0,0,0,0,0,0,0,0,0,0,0,0,0,0,0,0,0,0,0,0,0,0,0,0,0,0,0,0,0,0,0,0,0,0,1.2241,1.2241,0,1.224,1.224,1.224,1.2192,1.2191,1.219,1.2188,1.2187,1.2188,1.2189,0,0,0,0,0,0,0,0,0,0,0,0,0,1.2203,1.2204,1.2241,1.2241,1.2241,1.224,1.224,1.224,1.2192,1.2191,1.2189,1.2188,1.2187,1.2188,1.219,0,0,0,0,0,0,0,0,0,0,0,0,0,1.2212,1.2204,1.2241,1.2217,1.2215,1.224,1.224,1.224,1.2193,1.2191,1.2189,1.2187,1.2186,1.2188,1.219,1.2238,0,0,1.2195,1.2196,0,0,0,0,0,0,0,0,1.2212,1.2214,1.2221,1.2219,1.2217,1.2214,1.2226,1.2239,1.2193,1.2201,1.2188,1.2186,1.2198,1.2198,1.2202,1.2238,1.2238,1.2195,1.2196,1.2197,1.2197,0,0,0,0,0,0,0,1.2211,1.2214,1.2241,1.2221,1.2218,1.2207,1.2206,1.2228,1.221,1.22,1.2197,1.2197,1.2196,1.2201,1.2202,1.2238,1.2195,1.2197,1.2198,1.2198,1.2311,1.2313,0,0,0,0,0,0,1.2214,1.2213,1.2241,1.2241,1.221,1.2209,1.2208,1.2217,1.221,1.2207,1.2199,1.2195,1.2199,1.22,1.2202,1.2256,1.2197,1.2198,1.2199,1.2309,1.2312,1.2314,0,0,0,0,0,0,1.2213,1.2217,1.2241,1.2226,1.2228,1.2212,1.2222,1.2218,1.2222,1.2209,1.2205,1.2207,1.2197,1.2199,1.2229,1.2255,1.2199,1.2201,1.2307,1.231,1.2313,1.2366,0,0,0,0,0,0,1.2212,1.2217,1.2235,1.2227,1.2229,1.2268,1.2224,1.2219,1.2225,1.222,1.2215,1.2212,1.2196,1.2227,1.2231,1.2257,1.2202,1.2305,1.2308,1.2312,1.2362,1.2371,1.2378,0,0,0,0,0,1.2211,1.225,1.2236,1.2239,1.2251,1.227,1.2271,1.2251,1.2228,1.2245,1.2237,1.2213,1.2253,1.223,1.2234,1.2261,1.2303,1.2307,1.2312,1.2358,1.2369,1.2378,0,0,0,0,0,0,1.2261,1.2248,1.2233,1.227,1.2271,1.2262,1.2283,1.2263,1.2271,1.2266,1.2242,1.2241,1.2274,1.2271,1.2246,1.2307,1.2273,1.2279,1.2308,1.2318,1.2325,1.2325,1.2203,0,0,0,0,0,1.2277,1.2293,1.2281,1.2315,1.2317,1.23,1.2307,1.2292,1.2293,1.2293,1.2286,1.2287,1.23,1.2309,1.232,1.2362,1.236,1.2383,1.2391,1.2398,1.2402,1.2423,1.2433,1.2329,1.2329,1.2328,0,0,1.2309,1.2304,1.2315,1.2325,1.2324,1.2341,1.2301,1.2321,1.2333,1.2296,1.2323,1.2318,1.2318,1.2354,1.2369,1.2352,1.2431,1.2403,1.2409,1.241,1.2429,1.2439,1.2448,1.2332,1.2331,1.2331,0,0,1.2375,1.2373,1.2401,1.2401,1.2401,1.239,1.2397,1.239,1.2385,1.2412,1.2385,1.2399,1.2422,1.2423,1.2426,1.2494,1.2472,1.2498,1.254,1.2561,1.2569,1.2576,1.2599,1.2608,1.2503,1.2503,1.2504,0,1.2414,1.2439,1.2418,1.2439,1.2444,1.2412,1.244,1.2441,1.2445,1.2449,1.243,1.2457,1.2455,1.249,1.2506,1.2511,1.2517,1.2498,1.2569,1.2576,1.2583,1.2604,1.2613,1.2507,1.2506,1.2506,1.2506,0,1.2487,1.2504,1.2527,1.253,1.2538,1.2563,1.2546,1.2556,1.2541,1.2532,1.256,1.2556,1.2566,1.2573,1.2559,1.2607,1.2596,1.2574,1.2539,1.2596,1.2616,1.2624,1.2511,1.251,1.2509,1.2508,0,0,1.2583,1.2575,1.2584,1.2585,1.2582,1.2595,1.2619,1.2628,1.2637,1.2641,1.2659,1.268,1.2659,1.2663,1.2648,1.2667,1.2719,1.2642,1.2642,1.2656,1.2771,1.2786,1.2796,1.2706,1.2707,1.2708,1.277,0,1.2646,1.2685,1.2667,1.2708,1.2723,1.2694,1.2714,1.2715,1.2708,1.272,1.2712,1.2726,1.2698,1.27,1.2718,1.2709,1.2742,1.2705,1.2722,1.2722,1.2721,1.2806,1.2823,1.2881,1.2778,1.2779,1.278,0,1.2724,1.273,1.2773,1.2767,1.2773,1.2792,1.2798,1.2811,1.2811,1.2805,1.2809,1.2791,1.2813,1.278,1.2811,1.2786,1.2792,1.2789,1.2791,1.279,1.2753,1.2806,1.2899,1.2907,1.2792,1.2791,1.2791,0,1.2788,1.2808,1.2835,1.2837,1.2832,1.2846,1.2844,1.2843,1.2849,1.2856,1.286,1.2869,1.2874,1.2881,1.2865,1.2843,1.2898,1.2864,1.2892,1.2892,1.2903,1.2902,1.2996,1.291,1.291,1.291,1.291,0,1.2858,1.2885,1.2864,1.288,1.2909,1.289,1.2919,1.2914,1.2914,1.2929,1.2905,1.292,1.2899,1.2912,1.29,1.2926,1.2929,1.2924,1.292,1.2925,1.2925,1.2927,1.2922,1.2912,1.2912,1.2911,1.2911,0,1.2933,1.292,1.2948,1.2941,1.294,1.2962,1.2956,1.2971,1.2963,1.2982,1.2986,1.2973,1.2987,1.2972,1.2985,1.2977,1.3012,1.3003,1.3012,1.3009,1.3037,1.3034,1.3134,1.3146,1.3054,1.3055,1.3056,0,1.2978,1.2998,1.2994,1.3002,1.3002,1.3016,1.3023,1.3005,1.3013,1.3015,1.303,1.3042,1.305,1.3074,1.3066,1.3075,1.3066,1.31,1.3067,1.3071,1.3064,1.3062,1.3064,1.3106,1.3107,1.3108,1.3109,0,1.3059,1.3052,1.3063,1.3071,1.308,1.3086,1.309,1.3098,1.3079,1.309,1.3104,1.311,1.3124,1.3136,1.3143,1.3142,1.3122,1.312,1.3127,1.3131,1.3134,1.3131,1.3028,1.3117,1.3116,1.3116,1.3115,1.3115,1.312,1.3136,1.3135,1.3147,1.3149,1.3153,1.3167,1.316,1.3172,1.3181,1.317,1.3187,1.3187,1.3195,1.3196,1.3209,1.3194,1.3205,1.3207,1.3209,1.3213,1.3134,1.3211,1.321,1.321,1.321,1.321,0,1.3198,1.3196,1.3208,1.3214,1.3224,1.3206,1.321,1.3219,1.3234,1.3236,1.3245,1.3261,1.3273,1.3266,1.3276,1.3288,1.3279,1.3291,1.3289,1.3288,1.3226,1.3218,1.3298,1.3297,1.3297,1.3297,1.3297,1.3297,1.3239,1.3265,1.3258,1.3284,1.3282,1.3299,1.3302,1.3306,1.3307,1.3327,1.3336,1.3332,1.333,1.334,1.3349,1.3347,1.3351,1.3366,1.336,1.3302,1.3293,1.3285,1.3277,1.3367,1.3368,1.3421,1.3422,1.3422]}]]